Theta_e
296 296 296 296 296 296 296 297 298 297 297 297 297 298 298 298 299 302 302 302 302 300
296 296 295 295 295 296 297 299 296 296 296 296 296 296 297 297 298 301 302 302 302 301
295 296 295 295 294 295 296 295 295 295 295 295 295 296 297 296 300 300 301 302 302 302
295 295 295 294 294 294 295 297 294 294 294 296 296 297 298 299 299 300 300 301 302 302
295 294 293 293 293 295 297 298 297 297 296 296 295 296 295 297 298 298 297 298 299 300
294 293 293 292 293 294 294 296 296 296 295 293 294 295 295 296 297 297 298 299 300 301
293 293 292 292 292 293 293 294 294 292 292 293 294 295 296 297 297 297 299 300 299 298
293 292 292 291 292 293 295 291 290 290 294 294 294 296 297 297 296 296 297 297 296 296
292 292 290 290 291 293 294 292 292 292 292 292 293 296 298 297 295 295 295 294 294 294
292 291 290 293 291 291 293 292 292 291 291 291 293 297 297 297 295 294 294 294 293 293
291 292 293 293 292 291 292 291 291 291 291 291 292 296 295 294 293 292 292 291 292 290
290 291 292 292 291 292 292 291 291 291 288 289 291 294 294 292 291 290 289 290 291 290
290 290 292 292 291 292 292 291 291 289 288 291 291 293 293 291 290 288 287 288 288 292
289 290 289 292 292 292 292 290 289 288 289 290 291 292 293 291 289 287 286 285 285 286
Wind_Speed
4 3 2 2 1 1 2 2 5 5 4 4 4 5 5 3 3 3 4 5 5 4
3 3 3 3 2 2 2 3 5 5 4 5 5 4 5 3 5 4 4 5 6 5
3 3 2 3 3 3 3 5 5 5 5 5 5 5 5 4 5 5 5 5 6 7
3 3 3 3 3 3 1 4 5 5 5 6 6 5 5 5 6 6 6 6 6 9
3 3 3 3 4 4 4 3 5 6 7 6 6 6 6 6 6 6 8 8 8 10
3 2 2 2 2 3 3 3 5 7 6 6 6 6 6 5 7 8 8 8 8 7
2 0 1 2 2 2 2 5 5 5 5 5 6 6 6 8 7 7 6 3 3 3
1 2 3 3 3 3 3 4 4 5 5 6 6 4 8 7 6 5 3 2 2 4
2 1 2 3 4 4 3 3 3 4 5 6 5 11 12 6 4 4 3 2 3 3
1 1 2 2 3 4 4 3 3 4 5 5 5 12 10 7 3 3 4 3 3 4
2 2 2 2 2 4 3 3 3 3 5 5 4 11 8 6 4 3 4 4 4 4
4 1 1 2 3 3 3 3 3 2 5 5 4 10 7 4 3 3 5 5 3 4
3 1 1 2 2 2 2 3 3 3 3 5 4 8 7 4 1 1 3 4 5 10
1 1 3 1 2 2 3 3 4 4 3 3 4 6 5 3 2 2 3 3 3 3
Wind_Direction
129 146 146 135 152 296 277 315 31 13 8 6 1 338 330 316 305 326 291 277 271 271
122 133 135 120 79 343 355 33 23 14 3 348 339 336 331 317 307 294 278 270 268 261
120 117 124 93 45 24 57 42 14 352 346 334 321 313 321 312 296 295 280 271 271 273
84 69 81 73 27 347 43 45 358 336 331 328 321 309 308 300 296 293 295 289 278 276
94 77 78 50 14 4 21 17 342 335 330 313 311 310 312 306 298 301 294 290 281 274
95 72 82 48 17 37 8 10 355 332 331 313 302 308 301 295 301 293 286 283 290 274
112 186 114 17 7 33 341 31 357 332 310 308 311 309 306 305 300 295 291 314 325 9
120 45 35 4 351 308 70 32 338 323 324 325 317 323 320 314 310 310 316 0 33 25
116 104 17 353 352 339 38 37 329 329 331 329 327 325 335 342 322 337 355 3 29 34
214 48 352 18 15 351 10 3 341 337 334 327 329 346 355 2 342 10 1 19 32 45
172 39 330 15 1 8 341 347 343 341 340 332 335 358 360 25 9 31 19 22 50 62
217 135 42 11 11 334 332 327 326 325 345 332 348 358 20 25 41 36 27 13 51 58
209 287 19 26 338 320 321 304 307 298 302 335 344 354 12 43 22 67 53 32 19 83
179 354 310 328 335 324 305 316 325 314 242 310 351 0 357 223 202 120 88 66 35 40